Location: Christchurch
(43.5330°S, 172.6330°E)
Time: 00:37:18
(UTC+13:00)

ERS-1 Rocket - Pass Details

Date: 24 January 2019
Orbit: 754 x 757 km, 98.5° (Epoch: 19 February)

Event Time Altitude Azimuth Distance (km) Brightness Sun altitude
Rises 22:36:33 0° 152° (SSE) 3,248 6.5 -14.3°
Reaches altitude 10° 22:39:31 10° 134° (SE) 2,313 5.5 -14.7°
Maximum altitude 22:43:10 20° 88° (E) 1,729 4.4 -15.1°
Enters shadow 22:44:01 19° 75° (ENE) 1,762 4.4 -15.2°
